Regional Weather Roundup
Issued by NWS Glasgow, MT

Home | Current Version | Previous Version | Text Only | Print | Product List | Glossary On
Versions: 1 2 3 4 5 6 7 8 9 10 11 12 13 14 15 16 17 18 19 20 21 22 23 24 25 26 27 28 29 30 31 32 33 34 35 36 37 38 39 40 41 42 43 44 45 46 47 48 49 50
000
ASUS45 KGGW 251815
RWRGGW
HOURLY REGIONAL WEATHER ROUNDUP FOR NORTHEAST MONTANA
NATIONAL WEATHER SERVICE GLASGOW MONTANA
1100 AM MST SAT FEB 25 2017

NOTE: "FAIR" INDICATES FEW OR NO CLOUDS BELOW 12,000 FEET WITH NO
SIGNIFICANT WEATHER AND/OR OBSTRUCTIONS TO VISISBILITY.

NORTHEAST MONTANA


CITY           SKY/WX    TMP DP  RH WIND       PRES   REMARKS
GLASGOW        LGT SNOW  27  22  81 W13       29.77F
6HR MIN TEMP:  20; 6HR MAX TEMP:  26; 6HR PCP:  0.01;

PLENTYWOOD       N/A     23  18  81 NE1         N/A
WOLF POINT     PTSUNNY   25  19  78 N3        29.81F
JORDAN           N/A     28  20  71 W12       29.80F
WINNETT          N/A     32  12  43 W8G25       N/A
SIDNEY         NOT AVBL
GLENDIVE       PTSUNNY   29  23  78 W9        29.81F
MALTA            N/A     30  24  78 W5          N/A
SCOBEY         HAZE      19  11  70 CALM      29.78F VSB 1/2

FORT PECK REPORTS


CITY           SKY/WX    TMP DP  RH WIND       PRES   REMARKS
FORT PECK        N/A     25  25 100 S7          N/A

SOUTHEAST MONTANA


CITY           SKY/WX    TMP DP  RH WIND       PRES   REMARKS
BILLINGS       PTSUNNY   26  19  74 SW15      29.84F
MILES CITY     PTSUNNY   30  21  69 SW10      29.83F
BAKER          PTSUNNY   30  18  60 W16       29.82F
LIVINGSTON     CLOUDY    25  11  55 W24G35    29.82F

CENTRAL MONTANA


CITY           SKY/WX    TMP DP  RH WIND       PRES   REMARKS
HAVRE          MOSUNNY   26  19  74 W10       29.79F
LEWISTOWN      SUNNY     25   9  50 W22       29.76F
GREAT FALLS    SUNNY     30   7  37 W22G32    29.77F
CUT BANK       SUNNY     28  12  51 W18       29.73F
HELENA         PTSUNNY   31   8  38 W21G28    29.85F
BUTTE          MOSUNNY   20   2  45 W16G23    29.84F
BOZEMAN        CLOUDY    23  12  62 N6        29.88F

WESTERN MONTANA


CITY           SKY/WX    TMP DP  RH WIND       PRES   REMARKS
MISSOULA       PTSUNNY   24  17  74 S6        29.98F
KALISPELL      NOT AVBL

NORTH DAKOTA


CITY           SKY/WX    TMP DP  RH WIND       PRES   REMARKS
WILLISTON      CLOUDY    22  17  81 SW6       29.83F
DICKINSON      CLOUDY    24  18  77 CALM      29.79F
MINOT          PTSUNNY   23  15  71 W13       29.83F
BISMARCK       CLOUDY    27  22  81 N9        29.86F

SOUTHERN SASKATCHEWAN


CITY           SKY/WX    TMP DP  RH WIND       PRES   REMARKS
REGINA         PTSUNNY   12   5  73 NW10      29.83F WCI  -1
ESTEVAN        FLURRIES  16   9  73 NW9       29.83F
SWIFT CURRENT  CLOUDY    12   9  85 W5        29.76F




USA.gov is the U.S. government's official web portal to all federal, state and local government web resources and services.